Location: Alpha Ridge Park
(39.3209°N, 76.9128°W)
Time: 09:49:57
(UTC-04:00)

Transit 2A - Pass Details

Date: 01 June 2019
Orbit: 593 x 966 km, 66.7° (Epoch: 20 June)

Event Time Altitude Azimuth Distance (km) Brightness Sun altitude
Rises 08:11:49 0° 262° (W) 3,619 8.9 26.3°
Reaches altitude 10° 08:15:28 10° 282° (WNW) 2,699 8.4 27.0°
Maximum altitude 08:19:18 16° 320° (NW) 2,278 8.3 27.7°
Drops below altitude 10° 08:23:08 10° 357° (N) 2,696 9.0 28.4°
Sets 08:26:48 0° 18° (NNE) 3,612 9.8 29.1°
